Latrobe, PA

6:01 PM EDT on August 24, 2019 (GMT -0400)
Arnold Palmer Regional

Weather History for KLBE - May, 2019

Change the Weather History Date:

Sunday, May 12, 2019

  Actual Average Record
Temperature  
Mean Temperature 54 °F -  
Max Temperature 57 °F 70 °F 87 °F (1999)
Min Temperature 51 °F 47 °F 39 °F (2013)
Degree Days  
Heating Degree Days 11    
Growing Degree Days 4 (Base 50)    
Moisture  
Dew Point 53 °F    
Average Humidity 97    
Maximum Humidity 100    
Minimum Humidity 88    
Precipitation  
Precipitation 0.00 in - - ()
Sea Level Pressure  
Sea Level Pressure 29.73 in    
Wind  
Wind Speed 7 mph (ESE)    
Max Wind Speed 17 mph    
Max Gust Speed 34 mph    
Visibility 7 miles    
Events Rain    
Averages and records for this station are not official NWS values.
T = Trace of Precipitation, MM = Missing Value Source: NWS Daily Summary

Daily Weather History Graph

Daily Weather History Graph

Search for Another Location

Airport or City:

Astronomy

May. 12, 2019 Rise Set
Actual Time 6:04 AM EDT 8:23 PM EDT
Civil Twilight 5:34 AM EDT 8:54 PM EDT
Nautical Twilight 4:56 AM EDT 9:32 PM EDT
Astronomical Twilight 4:15 AM EDT 10:13 PM EDT
Moon 1:22 PM EDT (5/12) 2:44 AM EDT (5/12)
Length of Visible Light 15h 19m
Length of Day
14h 18m
First Quarter, 57% of the Moon is Illuminated
May 12
First Quarter
May 18
Full
May 26
Last Quarter
Jun 3
New
Jun 10
First Quarter

Hourly Weather History & Observations

Time (EDT) Temp. Dew Point Humidity Pressure Visibility Wind Dir Wind Speed Gust Speed Precip Events Conditions
12:15 AM 53.6 °F 51.8 °F 94% 29.83 in 10.0 mi Variable 5.8 mph - N/A   Mostly Cloudy
12:35 AM 53.6 °F 50.0 °F 88% 29.83 in 10.0 mi Variable 4.6 mph 12.7 mph N/A   Mostly Cloudy
12:55 AM 53.6 °F 50.0 °F 88% 29.82 in 10.0 mi Variable 5.8 mph - N/A Rain Light Rain
1:15 AM 53.6 °F 50.0 °F 88% 29.82 in 10.0 mi ESE 8.1 mph 13.8 mph N/A   Light Drizzle
1:35 AM 53.6 °F 50.0 °F 88% 29.82 in 8.0 mi ESE 10.4 mph - N/A Rain Light Rain
1:55 AM 51.8 °F 51.8 °F 100% 29.81 in 10.0 mi Variable 4.6 mph - N/A   Light Drizzle
2:15 AM 51.8 °F 51.8 °F 100% 29.79 in 10.0 mi NNE 6.9 mph - N/A   Light Drizzle
2:35 AM 51.8 °F 51.8 °F 100% 29.77 in 10.0 mi Variable 3.5 mph - N/A   Light Drizzle
2:55 AM 51.8 °F 51.8 °F 100% 29.75 in 10.0 mi East 13.8 mph - N/A   Overcast
3:15 AM 51.8 °F 51.8 °F 100% 29.74 in 10.0 mi ESE 13.8 mph 24.2 mph N/A   Overcast
3:35 AM 53.6 °F 51.8 °F 94% 29.74 in 10.0 mi ESE 11.5 mph 19.6 mph N/A   Overcast
3:55 AM 53.6 °F 51.8 °F 94% 29.73 in 10.0 mi East 10.4 mph 20.7 mph N/A   Overcast
4:15 AM 51.8 °F 51.8 °F 100% 29.73 in 9.0 mi ESE 15.0 mph 20.7 mph N/A   Light Drizzle
4:35 AM 51.8 °F 51.8 °F 100% 29.73 in 4.0 mi East 10.4 mph 17.3 mph N/A Rain Heavy Rain
4:55 AM 51.8 °F 51.8 °F 100% 29.72 in 3.0 mi East 6.9 mph - N/A Rain Heavy Rain
5:15 AM 51.8 °F 51.8 °F 100% 29.71 in 9.0 mi ESE 9.2 mph 16.1 mph N/A Rain Light Rain
5:35 AM 51.8 °F 51.8 °F 100% 29.68 in 10.0 mi East 17.3 mph 28.8 mph N/A Rain Light Rain
5:55 AM 53.6 °F 53.6 °F 100% 29.69 in 10.0 mi Variable 5.8 mph 19.6 mph N/A Rain Light Rain
6:51 AM - - N/A% 29.67 in 7.0 mi ESE 13.8 mph 34.5 mph N/A Rain Light Rain
7:51 AM 53.6 °F 51.8 °F 94% 29.65 in 5.0 mi ESE 13.8 mph 27.6 mph N/A Rain Light Rain
8:51 AM 53.6 °F 53.6 °F 100% 29.67 in 5.0 mi WNW 9.2 mph - N/A Rain Rain
9:13 AM 53.6 °F 53.6 °F 100% 29.69 in 1.5 mi SSE 5.8 mph - N/A Rain Rain
9:51 AM 53.6 °F 53.6 °F 100% 29.70 in 2.0 mi SSE 4.6 mph - N/A Rain Light Rain
10:51 AM 53.6 °F 53.6 °F 100% 29.69 in 6.0 mi SE 8.1 mph - N/A Rain Light Rain
11:15 AM 53.6 °F 53.6 °F 100% 29.69 in 10.0 mi ESE 5.8 mph - N/A   Overcast
11:51 AM 53.6 °F 53.6 °F 100% 29.69 in 10.0 mi ESE 5.8 mph - N/A   Overcast
12:53 PM 55.4 °F 51.8 °F 88% 29.69 in 10.0 mi East 5.8 mph - N/A   Overcast
1:53 PM 57.2 °F 53.6 °F 88% 29.70 in 10.0 mi SE 5.8 mph - N/A   Overcast
2:53 PM 55.4 °F 53.6 °F 94% 29.71 in 10.0 mi SSE 5.8 mph - N/A   Overcast
3:50 PM 55.4 °F 55.4 °F 100% 29.71 in 4.0 mi East 5.8 mph - N/A Rain Light Rain
4:50 PM 55.4 °F 55.4 °F 100% 29.70 in 4.0 mi East 6.9 mph - N/A Rain Light Rain
5:50 PM 55.4 °F 53.6 °F 94% 29.71 in 8.0 mi East 6.9 mph - N/A   Overcast
6:50 PM 53.6 °F 53.6 °F 100% 29.71 in 8.0 mi East 9.2 mph - N/A   Overcast
7:50 PM 53.6 °F 53.6 °F 100% 29.70 in 8.0 mi ESE 6.9 mph - N/A   Mostly Cloudy
8:50 PM 53.6 °F 53.6 °F 100% 29.71 in 4.0 mi ESE 6.9 mph - N/A   Overcast
9:50 PM 53.6 °F 53.6 °F 100% 29.72 in 8.0 mi ESE 5.8 mph - N/A   Overcast
10:15 PM 53.6 °F 53.6 °F 100% 29.73 in 10.0 mi Calm Calm - N/A   Overcast
10:35 PM 53.6 °F 53.6 °F 100% 29.74 in 2.0 mi Calm Calm - N/A   Light Drizzle
10:55 PM 53.6 °F 53.6 °F 100% 29.74 in 2.5 mi Calm Calm - N/A   Light Drizzle
11:15 PM 51.8 °F 51.8 °F 100% 29.74 in 2.5 mi Calm Calm - N/A   Light Drizzle
11:35 PM 51.8 °F 51.8 °F 100% 29.73 in 2.5 mi Calm Calm - N/A   Light Drizzle
11:55 PM 51.8 °F 51.8 °F 100% 29.73 in 2.5 mi Calm Calm - N/A   Overcast